Time,TemperatureF,DewpointF,PressureIn,WindDirection,WindDirectionDegrees,WindSpeedMPH,WindSpeedGustMPH,Humidity,HourlyPrecipIn,Conditions,Clouds,dailyrainin,SoftwareType,DateUTC
2013-03-03 00:00:00,32.6,25.6,29.59,NNE,20,3.0,5.0,75,0.00,,CLR,0.00,VWS V14.01,2013-03-03 05:00:00,
2013-03-03 00:05:00,32.5,25.5,29.59,North,5,0.0,2.0,75,0.00,,CLR,0.00,VWS V14.01,2013-03-03 05:05:00,
2013-03-03 00:10:00,32.5,25.5,29.59,NNE,33,0.0,5.0,75,0.00,,CLR,0.00,VWS V14.01,2013-03-03 05:10:00,
2013-03-03 00:15:00,32.5,25.5,29.59,NW,316,0.0,6.0,75,0.00,,CLR,0.00,VWS V14.01,2013-03-03 05:15:00,
2013-03-03 00:20:00,32.5,25.5,29.59,NNE,26,2.0,5.0,75,0.00,,CLR,0.00,VWS V14.01,2013-03-03 05:20:00,
2013-03-03 00:25:00,32.4,25.7,29.59,NNW,335,2.0,2.0,76,0.00,,CLR,0.00,VWS V14.01,2013-03-03 05:25:00,
2013-03-03 00:30:00,32.4,25.7,29.59,NNW,337,0.0,2.0,76,0.00,,CLR,0.00,VWS V14.01,2013-03-03 05:30:00,
2013-03-03 00:35:00,32.4,25.7,29.59,West,260,0.0,3.0,76,0.00,,CLR,0.00,VWS V14.01,2013-03-03 05:35:00,
2013-03-03 00:40:00,32.4,25.7,29.59,NNE,26,2.0,2.0,76,0.00,,CLR,0.00,VWS V14.01,2013-03-03 05:40:00,
2013-03-03 00:45:00,32.3,25.6,29.59,WNW,297,2.0,3.0,76,0.00,,CLR,0.00,VWS V14.01,2013-03-03 05:45:00,
2013-03-03 00:50:00,32.3,25.6,29.59,WNW,283,1.0,3.0,76,0.00,,CLR,0.00,VWS V14.01,2013-03-03 05:50:00,
2013-03-03 00:55:00,32.3,25.9,29.59,NNE,33,1.0,3.0,77,0.00,,CLR,0.00,VWS V14.01,2013-03-03 05:55:00,
2013-03-03 01:00:00,32.3,25.6,29.59,NW,316,1.0,2.0,76,0.00,,CLR,0.00,VWS V14.01,2013-03-03 06:00:00,
2013-03-03 01:05:00,32.2,25.5,29.59,NNW,327,1.0,3.0,76,0.00,,CLR,0.00,VWS V14.01,2013-03-03 06:05:00,
2013-03-03 01:10:00,32.2,25.5,29.59,WSW,243,0.0,2.0,76,0.00,,CLR,0.00,VWS V14.01,2013-03-03 06:10:00,
2013-03-03 01:15:00,32.2,25.5,29.59,WSW,240,2.0,4.0,76,0.00,,CLR,0.00,VWS V14.01,2013-03-03 06:15:00,
2013-03-03 01:20:00,32.2,25.8,29.59,NW,314,0.0,3.0,77,0.00,,CLR,0.00,VWS V14.01,2013-03-03 06:20:00,
2013-03-03 01:25:00,32.1,25.7,29.59,North,8,0.0,3.0,77,0.00,,CLR,0.00,VWS V14.01,2013-03-03 06:25:00,
2013-03-03 01:30:00,32.1,25.7,29.59,West,262,0.0,1.0,77,0.00,,CLR,0.00,VWS V14.01,2013-03-03 06:30:00,
2013-03-03 01:35:00,32.1,25.7,29.59,WSW,255,1.0,3.0,77,0.00,,CLR,0.00,VWS V14.01,2013-03-03 06:35:00,
2013-03-03 01:40:00,32.1,25.7,29.59,WSW,252,1.0,3.0,77,0.00,,CLR,0.00,VWS V14.01,2013-03-03 06:40:00,
2013-03-03 01:45:00,32.0,25.6,29.59,WNW,297,1.0,1.0,77,0.00,,CLR,0.00,VWS V14.01,2013-03-03 06:45:00,
2013-03-03 01:50:00,32.0,25.9,29.59,WNW,296,1.0,1.0,78,0.00,,CLR,0.00,VWS V14.01,2013-03-03 06:50:00,
2013-03-03 01:55:00,32.0,25.6,29.59,NNW,336,3.0,3.0,77,0.00,,CLR,0.00,VWS V14.01,2013-03-03 06:55:00,
2013-03-03 02:00:00,31.9,25.5,29.58,WNW,301,1.0,2.0,77,0.00,,CLR,0.00,VWS V14.01,2013-03-03 07:00:00,
2013-03-03 02:05:00,31.9,25.8,29.58,WSW,255,1.0,1.0,78,0.00,,CLR,0.00,VWS V14.01,2013-03-03 07:05:00,
2013-03-03 02:10:00,31.9,25.5,29.58,South,183,0.0,1.0,77,0.00,,CLR,0.00,VWS V14.01,2013-03-03 07:10:00,
2013-03-03 02:15:00,31.9,25.5,29.58,West,281,0.0,3.0,77,0.00,,CLR,0.00,VWS V14.01,2013-03-03 07:15:00,
2013-03-03 02:20:00,31.8,25.7,29.58,North,356,2.0,2.0,78,0.00,,CLR,0.00,VWS V14.01,2013-03-03 07:20:00,
2013-03-03 02:25:00,31.8,25.4,29.58,WNW,288,0.0,2.0,77,0.00,,CLR,0.00,VWS V14.01,2013-03-03 07:25:00,
2013-03-03 02:30:00,31.8,25.4,29.58,WSW,243,1.0,3.0,77,0.00,,CLR,0.00,VWS V14.01,2013-03-03 07:30:00,
2013-03-03 02:35:00,31.8,25.4,29.58,East,89,1.0,3.0,77,0.00,,CLR,0.00,VWS V14.01,2013-03-03 07:35:00,
2013-03-03 02:40:00,31.8,25.7,29.58,East,89,0.0,1.0,78,0.00,,CLR,0.00,VWS V14.01,2013-03-03 07:40:00,
2013-03-03 02:45:00,31.8,25.4,29.58,SW,225,1.0,1.0,77,0.00,,CLR,0.00,VWS V14.01,2013-03-03 07:45:00,
2013-03-03 02:50:00,31.8,25.4,29.58,NW,322,0.0,1.0,77,0.00,,CLR,0.00,VWS V14.01,2013-03-03 07:50:00,
2013-03-03 02:55:00,31.7,25.6,29.58,WNW,284,1.0,1.0,78,0.00,,CLR,0.00,VWS V14.01,2013-03-03 07:55:00,
2013-03-03 03:00:00,31.7,25.6,29.58,WNW,297,0.0,0.0,78,0.00,,CLR,0.00,VWS V14.01,2013-03-03 08:00:00,
2013-03-03 03:05:00,31.7,25.6,29.58,WNW,296,1.0,1.0,78,0.00,,CLR,0.00,VWS V14.01,2013-03-03 08:05:00,
2013-03-03 03:10:00,31.7,25.6,29.58,NNW,330,0.0,1.0,78,0.00,,CLR,0.00,VWS V14.01,2013-03-03 08:10:00,
2013-03-03 03:15:00,31.6,25.5,29.57,NW,309,1.0,1.0,78,0.00,,CLR,0.00,VWS V14.01,2013-03-03 08:15:00,
2013-03-03 03:20:00,31.6,25.5,29.57,NW,316,0.0,1.0,78,0.00,,CLR,0.00,VWS V14.01,2013-03-03 08:20:00,
2013-03-03 03:25:00,31.6,25.5,29.57,West,270,0.0,1.0,78,0.00,,CLR,0.00,VWS V14.01,2013-03-03 08:25:00,
2013-03-03 03:30:00,31.6,25.5,29.57,WNW,282,1.0,1.0,78,0.00,,CLR,0.00,VWS V14.01,2013-03-03 08:30:00,
2013-03-03 03:35:00,31.5,25.4,29.57,West,272,0.0,2.0,78,0.00,,CLR,0.00,VWS V14.01,2013-03-03 08:35:00,
2013-03-03 03:40:00,31.5,25.8,29.57,WNW,300,2.0,3.0,79,0.00,,CLR,0.00,VWS V14.01,2013-03-03 08:40:00,
2013-03-03 03:45:00,31.5,25.8,29.57,West,266,0.0,3.0,79,0.00,,CLR,0.00,VWS V14.01,2013-03-03 08:45:00,
2013-03-03 03:50:00,31.4,25.4,29.57,WNW,291,2.0,3.0,78,0.00,,CLR,0.00,VWS V14.01,2013-03-03 08:50:00,
2013-03-03 03:55:00,31.4,25.4,29.57,West,278,0.0,2.0,78,0.00,,CLR,0.00,VWS V14.01,2013-03-03 08:55:00,
2013-03-03 04:00:00,31.4,25.4,29.57,West,278,0.0,2.0,78,0.00,,CLR,0.00,VWS V14.01,2013-03-03 09:00:00,
2013-03-03 04:05:00,31.3,25.6,29.57,WNW,295,4.0,5.0,79,0.00,,CLR,0.00,VWS V14.01,2013-03-03 09:05:00,
2013-03-03 04:10:00,31.3,25.2,29.57,NW,318,0.0,1.0,78,0.00,,CLR,0.00,VWS V14.01,2013-03-03 09:10:00,
2013-03-03 04:15:00,31.3,25.2,29.57,WNW,288,0.0,3.0,78,0.00,,CLR,0.00,VWS V14.01,2013-03-03 09:15:00,
2013-03-03 04:20:00,31.3,25.2,29.57,North,358,1.0,2.0,78,0.00,,CLR,0.00,VWS V14.01,2013-03-03 09:20:00,
2013-03-03 04:25:00,31.3,25.2,29.57,NW,321,1.0,4.0,78,0.00,,CLR,0.00,VWS V14.01,2013-03-03 09:25:00,
2013-03-03 04:30:00,31.3,25.2,29.57,NNE,13,1.0,3.0,78,0.00,,CLR,0.00,VWS V14.01,2013-03-03 09:30:00,
2013-03-03 04:35:00,31.3,25.2,29.57,WNW,303,1.0,2.0,78,0.00,,CLR,0.00,VWS V14.01,2013-03-03 09:35:00,
2013-03-03 04:40:00,31.3,25.2,29.57,NNW,333,1.0,2.0,78,0.00,,CLR,0.00,VWS V14.01,2013-03-03 09:40:00,
2013-03-03 04:45:00,31.2,25.1,29.58,WNW,294,4.0,4.0,78,0.00,,CLR,0.00,VWS V14.01,2013-03-03 09:45:00,
2013-03-03 04:50:00,31.2,25.5,29.58,NNE,18,3.0,4.0,79,0.00,,CLR,0.00,VWS V14.01,2013-03-03 09:50:00,
2013-03-03 04:55:00,31.0,25.6,29.58,ESE,103,2.0,3.0,80,0.00,,CLR,0.00,VWS V14.01,2013-03-03 09:55:00,
2013-03-03 05:00:00,30.9,25.8,29.58,SE,129,0.0,1.0,81,0.00,,CLR,0.00,VWS V14.01,2013-03-03 10:00:00,
2013-03-03 05:05:00,30.7,25.9,29.58,NNE,33,2.0,4.0,82,0.00,,CLR,0.00,VWS V14.01,2013-03-03 10:05:00,
2013-03-03 05:10:00,30.5,26.0,29.58,WNW,288,0.0,3.0,83,0.00,,CLR,0.00,VWS V14.01,2013-03-03 10:10:00,
2013-03-03 05:15:00,30.4,25.9,29.58,NE,46,1.0,4.0,83,0.00,,CLR,0.00,VWS V14.01,2013-03-03 10:15:00,
2013-03-03 05:20:00,30.3,26.1,29.58,NW,308,3.0,3.0,84,0.00,,CLR,0.00,VWS V14.01,2013-03-03 10:20:00,
2013-03-03 05:25:00,30.2,26.0,29.58,SW,231,0.0,1.0,84,0.00,,CLR,0.00,VWS V14.01,2013-03-03 10:25:00,
2013-03-03 05:30:00,30.1,25.9,29.58,NW,316,0.0,2.0,84,0.00,,CLR,0.00,VWS V14.01,2013-03-03 10:30:00,
2013-03-03 05:35:00,30.1,26.1,29.58,WNW,289,2.0,2.0,85,0.00,,CLR,0.00,VWS V14.01,2013-03-03 10:35:00,
2013-03-03 05:40:00,30.0,26.0,29.58,WNW,298,1.0,3.0,85,0.00,,CLR,0.00,VWS V14.01,2013-03-03 10:40:00,
2013-03-03 05:45:00,29.9,26.0,29.58,West,281,2.0,3.0,85,0.00,,CLR,0.00,VWS V14.01,2013-03-03 10:45:00,
2013-03-03 05:50:00,29.8,25.9,29.58,West,273,0.0,3.0,85,0.00,,CLR,0.00,VWS V14.01,2013-03-03 10:50:00,
2013-03-03 05:55:00,29.6,25.9,29.58,NNE,23,2.0,3.0,86,0.00,,CLR,0.00,VWS V14.01,2013-03-03 10:55:00,
2013-03-03 06:00:00,29.5,25.8,29.58,WNW,283,0.0,3.0,86,0.00,,CLR,0.00,VWS V14.01,2013-03-03 11:00:00,
2013-03-03 06:05:00,29.4,25.7,29.58,West,280,0.0,1.0,86,0.00,,CLR,0.00,VWS V14.01,2013-03-03 11:05:00,
2013-03-03 06:10:00,29.3,25.6,29.58,WSW,250,4.0,4.0,86,0.00,,CLR,0.00,VWS V14.01,2013-03-03 11:10:00,
2013-03-03 06:15:00,29.3,25.6,29.58,WSW,252,1.0,2.0,86,0.00,,CLR,0.00,VWS V14.01,2013-03-03 11:15:00,
2013-03-03 06:20:00,29.3,25.9,29.58,WSW,252,0.0,0.0,87,0.00,,CLR,0.00,VWS V14.01,2013-03-03 11:20:00,
2013-03-03 06:25:00,29.3,25.9,29.58,NW,318,0.0,1.0,87,0.00,,CLR,0.00,VWS V14.01,2013-03-03 11:25:00,
2013-03-03 06:30:00,29.4,26.0,29.58,WNW,301,0.0,1.0,87,0.00,,CLR,0.00,VWS V14.01,2013-03-03 11:30:00,
2013-03-03 06:35:00,29.5,26.1,29.58,WNW,303,1.0,2.0,87,0.00,,CLR,0.00,VWS V14.01,2013-03-03 11:35:00,
2013-03-03 06:40:00,29.6,25.9,29.58,WSW,252,0.0,3.0,86,0.00,,CLR,0.00,VWS V14.01,2013-03-03 11:40:00,
2013-03-03 06:45:00,29.7,26.0,29.58,West,269,0.0,1.0,86,0.00,,CLR,0.00,VWS V14.01,2013-03-03 11:45:00,
2013-03-03 06:50:00,29.8,26.1,29.59,West,263,1.0,2.0,86,0.00,,CLR,0.00,VWS V14.01,2013-03-03 11:50:00,
2013-03-03 06:55:00,29.9,26.2,29.59,WSW,252,0.0,3.0,86,0.00,,CLR,0.00,VWS V14.01,2013-03-03 11:55:00,
2013-03-03 07:00:00,30.0,26.3,29.59,WSW,250,1.0,1.0,86,0.00,,CLR,0.00,VWS V14.01,2013-03-03 12:00:00,
2013-03-03 07:05:00,30.1,26.4,29.59,NW,326,0.0,3.0,86,0.00,,CLR,0.00,VWS V14.01,2013-03-03 12:05:00,
2013-03-03 07:10:00,30.2,26.5,29.59,WNW,283,2.0,3.0,86,0.00,,CLR,0.00,VWS V14.01,2013-03-03 12:10:00,
2013-03-03 07:15:00,30.2,26.5,29.59,NNW,340,1.0,3.0,86,0.00,,CLR,0.00,VWS V14.01,2013-03-03 12:15:00,
2013-03-03 07:20:00,30.4,26.4,29.59,NNE,31,3.0,3.0,85,0.00,,CLR,0.00,VWS V14.01,2013-03-03 12:20:00,
2013-03-03 07:25:00,30.4,26.4,29.59,NW,323,0.0,3.0,85,0.00,,CLR,0.00,VWS V14.01,2013-03-03 12:25:00,
2013-03-03 07:30:00,30.5,26.5,29.59,SW,229,0.0,3.0,85,0.00,,CLR,0.00,VWS V14.01,2013-03-03 12:30:00,
2013-03-03 07:35:00,30.6,26.6,29.59,NNW,333,1.0,3.0,85,0.00,,CLR,0.00,VWS V14.01,2013-03-03 12:35:00,
2013-03-03 07:40:00,30.5,26.2,29.59,NNW,343,1.0,3.0,84,0.00,,CLR,0.00,VWS V14.01,2013-03-03 12:40:00,
2013-03-03 07:45:00,30.5,26.2,29.59,SW,225,1.0,3.0,84,0.00,,CLR,0.00,VWS V14.01,2013-03-03 12:45:00,
2013-03-03 07:50:00,30.6,26.6,29.59,NNE,33,1.0,3.0,85,0.00,,CLR,0.00,VWS V14.01,2013-03-03 12:50:00,
2013-03-03 07:55:00,30.6,26.9,29.59,North,353,0.0,3.0,86,0.00,,CLR,0.00,VWS V14.01,2013-03-03 12:55:00,
2013-03-03 08:00:00,30.8,27.1,29.59,NE,39,0.0,1.0,86,0.00,,CLR,0.00,VWS V14.01,2013-03-03 13:00:00,
2013-03-03 08:05:00,30.8,27.1,29.59,WNW,288,1.0,3.0,86,0.00,,CLR,0.00,VWS V14.01,2013-03-03 13:05:00,
2013-03-03 08:10:00,30.9,26.9,29.59,WSW,243,3.0,3.0,85,0.00,,CLR,0.00,VWS V14.01,2013-03-03 13:10:00,
2013-03-03 08:15:00,30.8,27.1,29.59,NW,322,1.0,4.0,86,0.00,,CLR,0.00,VWS V14.01,2013-03-03 13:15:00,
2013-03-03 08:20:00,31.0,27.3,29.58,West,273,1.0,3.0,86,0.00,,CLR,0.00,VWS V14.01,2013-03-03 13:20:00,
2013-03-03 08:25:00,31.2,27.2,29.58,NNW,345,0.0,4.0,85,0.00,,CLR,0.00,VWS V14.01,2013-03-03 13:25:00,
2013-03-03 08:30:00,31.2,26.6,29.58,West,262,7.0,7.0,83,0.00,,CLR,0.00,VWS V14.01,2013-03-03 13:30:00,
2013-03-03 08:35:00,30.9,26.9,29.59,WNW,294,1.0,7.0,85,0.00,,CLR,0.00,VWS V14.01,2013-03-03 13:35:00,
2013-03-03 08:40:00,30.8,27.1,29.58,West,261,1.0,4.0,86,0.00,,CLR,0.00,VWS V14.01,2013-03-03 13:40:00,
2013-03-03 08:45:00,30.9,27.2,29.58,North,1,2.0,4.0,86,0.00,,CLR,0.00,VWS V14.01,2013-03-03 13:45:00,
2013-03-03 08:50:00,31.0,27.3,29.58,ENE,59,1.0,3.0,86,0.00,,CLR,0.00,VWS V14.01,2013-03-03 13:50:00,
2013-03-03 08:55:00,31.2,27.5,29.58,SW,229,2.0,4.0,86,0.00,,CLR,0.00,VWS V14.01,2013-03-03 13:55:00,
2013-03-03 09:00:00,31.3,27.3,29.58,West,277,0.0,2.0,85,0.00,,CLR,0.00,VWS V14.01,2013-03-03 14:00:00,
2013-03-03 09:05:00,31.5,27.5,29.58,SW,233,1.0,4.0,85,0.00,,CLR,0.00,VWS V14.01,2013-03-03 14:05:00,
2013-03-03 09:10:00,31.5,27.2,29.58,NW,304,4.0,5.0,84,0.00,,CLR,0.00,VWS V14.01,2013-03-03 14:10:00,
2013-03-03 09:15:00,31.4,27.4,29.58,NNW,346,3.0,5.0,85,0.00,,CLR,0.00,VWS V14.01,2013-03-03 14:15:00,
2013-03-03 09:20:00,31.4,27.4,29.58,NNW,333,2.0,4.0,85,0.00,,CLR,0.00,VWS V14.01,2013-03-03 14:20:00,
2013-03-03 09:25:00,31.3,27.3,29.58,NNW,338,1.0,6.0,85,0.00,,CLR,0.00,VWS V14.01,2013-03-03 14:25:00,
2013-03-03 09:30:00,31.6,27.6,29.58,SW,217,1.0,4.0,85,0.00,,CLR,0.00,VWS V14.01,2013-03-03 14:30:00,
2013-03-03 09:35:00,31.7,27.7,29.58,NNE,27,2.0,5.0,85,0.00,,CLR,0.00,VWS V14.01,2013-03-03 14:35:00,
2013-03-03 09:40:00,32.1,27.8,29.58,West,271,2.0,5.0,84,0.00,,CLR,0.00,VWS V14.01,2013-03-03 14:40:00,
2013-03-03 09:45:00,32.2,27.6,29.57,North,359,6.0,6.0,83,0.00,,CLR,0.00,VWS V14.01,2013-03-03 14:45:00,
2013-03-03 09:50:00,32.4,27.8,29.57,North,9,6.0,8.0,83,0.00,,CLR,0.00,VWS V14.01,2013-03-03 14:50:00,
2013-03-03 09:55:00,32.5,27.6,29.57,ENE,69,1.0,5.0,82,0.00,,CLR,0.00,VWS V14.01,2013-03-03 14:55:00,
2013-03-03 10:00:00,32.6,27.7,29.57,WSW,253,1.0,4.0,82,0.00,,CLR,0.00,VWS V14.01,2013-03-03 15:00:00,
2013-03-03 10:05:00,32.9,28.0,29.57,North,8,6.0,6.0,82,0.00,,CLR,0.00,VWS V14.01,2013-03-03 15:05:00,
2013-03-03 10:10:00,33.1,28.5,29.57,SW,235,0.0,6.0,83,0.00,,CLR,0.00,VWS V14.01,2013-03-03 15:10:00,
2013-03-03 10:15:00,33.4,28.5,29.57,WSW,257,5.0,5.0,82,0.00,,CLR,0.00,VWS V14.01,2013-03-03 15:15:00,
2013-03-03 10:20:00,33.3,28.4,29.56,WNW,285,4.0,5.0,82,0.00,,CLR,0.00,VWS V14.01,2013-03-03 15:20:00,
2013-03-03 10:25:00,33.4,28.2,29.56,WSW,242,2.0,6.0,81,0.00,,CLR,0.00,VWS V14.01,2013-03-03 15:25:00,
2013-03-03 10:30:00,33.6,28.7,29.56,ENE,69,1.0,3.0,82,0.00,,CLR,0.00,VWS V14.01,2013-03-03 15:30:00,
2013-03-03 10:35:00,34.3,29.7,29.56,WNW,294,1.0,3.0,83,0.00,,CLR,0.00,VWS V14.01,2013-03-03 15:35:00,
2013-03-03 10:40:00,34.8,29.6,29.56,WSW,249,3.0,4.0,81,0.00,,CLR,0.00,VWS V14.01,2013-03-03 15:40:00,
2013-03-03 10:45:00,34.7,28.9,29.56,NNW,338,5.0,7.0,79,0.00,,CLR,0.00,VWS V14.01,2013-03-03 15:45:00,
2013-03-03 10:50:00,34.6,29.1,29.56,NW,307,2.0,5.0,80,0.00,,CLR,0.00,VWS V14.01,2013-03-03 15:50:00,
2013-03-03 10:55:00,35.0,29.5,29.56,NE,50,6.0,6.0,80,0.00,,CLR,0.00,VWS V14.01,2013-03-03 15:55:00,
2013-03-03 11:00:00,34.8,29.3,29.56,NNE,18,1.0,6.0,80,0.00,,CLR,0.00,VWS V14.01,2013-03-03 16:00:00,
2013-03-03 11:05:00,35.0,29.5,29.56,WSW,245,2.0,4.0,80,0.00,,CLR,0.00,VWS V14.01,2013-03-03 16:05:00,
2013-03-03 11:10:00,35.5,30.3,29.56,WSW,238,2.0,3.0,81,0.00,,CLR,0.00,VWS V14.01,2013-03-03 16:10:00,
2013-03-03 11:15:00,36.0,29.8,29.56,WSW,245,2.0,4.0,78,0.00,,CLR,0.00,VWS V14.01,2013-03-03 16:15:00,
2013-03-03 11:20:00,36.3,30.1,29.56,NW,319,3.0,5.0,78,0.00,,CLR,0.00,VWS V14.01,2013-03-03 16:20:00,
2013-03-03 11:25:00,36.4,29.9,29.56,North,9,3.0,6.0,77,0.00,,CLR,0.00,VWS V14.01,2013-03-03 16:25:00,
2013-03-03 11:30:00,36.6,30.1,29.56,NNW,342,3.0,4.0,77,0.00,,CLR,0.00,VWS V14.01,2013-03-03 16:30:00,
2013-03-03 11:35:00,36.6,30.1,29.55,NW,311,1.0,4.0,77,0.00,,CLR,0.00,VWS V14.01,2013-03-03 16:35:00,
2013-03-03 11:40:00,36.7,30.2,29.55,WNW,298,0.0,4.0,77,0.00,,CLR,0.00,VWS V14.01,2013-03-03 16:40:00,
2013-03-03 11:45:00,37.0,30.1,29.55,WNW,285,1.0,3.0,76,0.00,,CLR,0.00,VWS V14.01,2013-03-03 16:45:00,
2013-03-03 11:50:00,36.7,29.9,29.55,NNW,333,4.0,8.0,76,0.00,,CLR,0.00,VWS V14.01,2013-03-03 16:50:00,
2013-03-03 11:55:00,36.3,29.8,29.55,NNE,33,6.0,8.0,77,0.00,,CLR,0.00,VWS V14.01,2013-03-03 16:55:00,
2013-03-03 12:00:00,36.3,30.1,29.54,NNE,16,7.0,7.0,78,0.00,,CLR,0.00,VWS V14.01,2013-03-03 17:00:00,
2013-03-03 12:05:00,36.4,30.2,29.54,NE,43,4.0,5.0,78,0.00,,CLR,0.00,VWS V14.01,2013-03-03 17:05:00,
2013-03-03 12:10:00,36.4,30.2,29.54,NNE,25,1.0,7.0,78,0.00,,CLR,0.00,VWS V14.01,2013-03-03 17:10:00,
2013-03-03 12:15:00,36.9,30.4,29.54,NE,51,1.0,4.0,77,0.00,,CLR,0.00,VWS V14.01,2013-03-03 17:15:00,
2013-03-03 12:20:00,37.5,31.0,29.54,South,187,1.0,2.0,77,0.00,,CLR,0.00,VWS V14.01,2013-03-03 17:20:00,
2013-03-03 12:25:00,37.6,30.4,29.54,NW,315,2.0,6.0,75,0.00,,CLR,0.00,VWS V14.01,2013-03-03 17:25:00,
2013-03-03 12:30:00,37.6,30.4,29.54,WSW,245,2.0,6.0,75,0.00,,CLR,0.00,VWS V14.01,2013-03-03 17:30:00,
2013-03-03 12:35:00,37.5,30.3,29.53,West,263,0.0,5.0,75,0.00,,CLR,0.00,VWS V14.01,2013-03-03 17:35:00,
2013-03-03 12:40:00,37.9,30.7,29.53,West,260,1.0,4.0,75,0.00,,CLR,0.00,VWS V14.01,2013-03-03 17:40:00,
2013-03-03 12:45:00,38.0,30.8,29.53,NE,49,4.0,5.0,75,0.00,,CLR,0.00,VWS V14.01,2013-03-03 17:45:00,
2013-03-03 12:50:00,37.8,30.6,29.53,NNE,30,7.0,7.0,75,0.00,,CLR,0.00,VWS V14.01,2013-03-03 17:50:00,
2013-03-03 12:55:00,37.6,30.4,29.53,NNE,33,5.0,5.0,75,0.00,,CLR,0.00,VWS V14.01,2013-03-03 17:55:00,
2013-03-03 13:00:00,37.5,30.6,29.53,NNW,330,2.0,5.0,76,0.00,,CLR,0.00,VWS V14.01,2013-03-03 18:00:00,
2013-03-03 13:05:00,37.5,30.6,29.53,NE,45,4.0,4.0,76,0.00,,CLR,0.00,VWS V14.01,2013-03-03 18:05:00,
2013-03-03 13:10:00,37.4,30.5,29.52,WNW,290,3.0,6.0,76,0.00,,CLR,0.00,VWS V14.01,2013-03-03 18:10:00,
2013-03-03 13:15:00,37.4,30.5,29.52,North,352,3.0,5.0,76,0.00,,CLR,0.00,VWS V14.01,2013-03-03 18:15:00,
2013-03-03 13:20:00,37.5,30.6,29.52,ENE,77,1.0,4.0,76,0.00,,CLR,0.00,VWS V14.01,2013-03-03 18:20:00,
2013-03-03 13:25:00,37.6,30.7,29.52,WNW,294,2.0,5.0,76,0.00,,CLR,0.00,VWS V14.01,2013-03-03 18:25:00,
2013-03-03 13:30:00,37.9,31.0,29.52,NE,37,1.0,3.0,76,0.00,,CLR,0.00,VWS V14.01,2013-03-03 18:30:00,
2013-03-03 13:35:00,38.1,31.2,29.52,SSW,211,1.0,3.0,76,0.00,,CLR,0.00,VWS V14.01,2013-03-03 18:35:00,
2013-03-03 13:40:00,38.3,31.1,29.52,NNE,27,2.0,4.0,75,0.00,,CLR,0.00,VWS V14.01,2013-03-03 18:40:00,
2013-03-03 13:45:00,38.0,31.1,29.52,SW,233,2.0,4.0,76,0.00,,CLR,0.00,VWS V14.01,2013-03-03 18:45:00,
2013-03-03 13:50:00,38.0,31.4,29.52,NNE,15,4.0,4.0,77,0.00,,CLR,0.00,VWS V14.01,2013-03-03 18:50:00,
2013-03-03 13:55:00,38.2,31.6,29.52,NE,38,0.0,1.0,77,0.00,,CLR,0.00,VWS V14.01,2013-03-03 18:55:00,
2013-03-03 14:00:00,38.4,31.8,29.52,WSW,252,1.0,3.0,77,0.00,,CLR,0.00,VWS V14.01,2013-03-03 19:00:00,
2013-03-03 14:05:00,38.8,32.2,29.52,SW,233,1.0,1.0,77,0.00,,CLR,0.00,VWS V14.01,2013-03-03 19:05:00,
2013-03-03 14:10:00,39.1,31.9,29.52,SSW,208,1.0,2.0,75,0.00,,CLR,0.00,VWS V14.01,2013-03-03 19:10:00,
2013-03-03 14:15:00,39.3,31.7,29.52,NE,45,2.0,2.0,74,0.00,,CLR,0.00,VWS V14.01,2013-03-03 19:15:00,
2013-03-03 14:20:00,39.6,31.7,29.52,WNW,302,0.0,1.0,73,0.00,,CLR,0.00,VWS V14.01,2013-03-03 19:20:00,
2013-03-03 14:25:00,40.0,31.7,29.52,NNE,26,4.0,4.0,72,0.00,,CLR,0.00,VWS V14.01,2013-03-03 19:25:00,
2013-03-03 14:30:00,39.8,31.2,29.51,NW,325,0.0,1.0,71,0.00,,CLR,0.00,VWS V14.01,2013-03-03 19:30:00,
2013-03-03 14:35:00,40.0,31.7,29.51,NNE,27,0.0,1.0,72,0.00,,CLR,0.00,VWS V14.01,2013-03-03 19:35:00,
2013-03-03 14:40:00,40.0,31.4,29.51,NW,307,0.0,2.0,71,0.00,,CLR,0.00,VWS V14.01,2013-03-03 19:40:00,
2013-03-03 14:45:00,40.0,31.4,29.51,WSW,238,0.0,3.0,71,0.00,,CLR,0.00,VWS V14.01,2013-03-03 19:45:00,
2013-03-03 14:50:00,39.9,31.3,29.51,WSW,255,2.0,3.0,71,0.00,,CLR,0.00,VWS V14.01,2013-03-03 19:50:00,
2013-03-03 14:55:00,39.8,31.5,29.51,WSW,252,0.0,1.0,72,0.00,,CLR,0.00,VWS V14.01,2013-03-03 19:55:00,
2013-03-03 15:00:00,40.1,31.8,29.51,NE,39,2.0,3.0,72,0.00,,CLR,0.00,VWS V14.01,2013-03-03 20:00:00,
2013-03-03 15:05:00,39.6,31.3,29.51,NW,312,2.0,6.0,72,0.00,,CLR,0.00,VWS V14.01,2013-03-03 20:05:00,
2013-03-03 15:10:00,39.2,31.3,29.51,NNE,33,4.0,5.0,73,0.00,,CLR,0.00,VWS V14.01,2013-03-03 20:10:00,
2013-03-03 15:15:00,38.7,31.8,29.51,NW,311,2.0,7.0,76,0.00,,CLR,0.00,VWS V14.01,2013-03-03 20:15:00,
2013-03-03 15:20:00,38.3,31.7,29.51,NNE,23,3.0,8.0,77,0.00,,CLR,0.00,VWS V14.01,2013-03-03 20:20:00,
2013-03-03 15:25:00,38.1,31.9,29.51,NNW,331,3.0,6.0,78,0.00,,CLR,0.00,VWS V14.01,2013-03-03 20:25:00,
2013-03-03 15:30:00,38.1,31.9,29.51,North,8,0.0,4.0,78,0.00,,CLR,0.00,VWS V14.01,2013-03-03 20:30:00,
2013-03-03 15:35:00,38.2,32.0,29.51,West,277,3.0,4.0,78,0.00,,CLR,0.00,VWS V14.01,2013-03-03 20:35:00,
2013-03-03 15:40:00,38.2,32.0,29.51,WNW,297,1.0,4.0,78,0.00,,CLR,0.00,VWS V14.01,2013-03-03 20:40:00,
2013-03-03 15:45:00,38.1,31.9,29.51,NNE,25,2.0,4.0,78,0.00,,CLR,0.00,VWS V14.01,2013-03-03 20:45:00,
2013-03-03 15:50:00,38.3,32.0,29.51,WSW,257,1.0,4.0,78,0.00,,CLR,0.00,VWS V14.01,2013-03-03 20:50:00,
2013-03-03 15:55:00,38.4,32.0,29.51,NNW,345,3.0,5.0,77,0.00,,,0.00,weatherlink.com 1.10,2013-03-03 20:55:00,
2013-03-03 16:00:00,38.3,31.4,29.51,West,277,1.0,6.0,76,0.00,,CLR,0.00,VWS V14.01,2013-03-03 21:00:00,
2013-03-03 16:05:00,38.3,31.1,29.51,SW,233,4.0,6.0,75,0.00,,CLR,0.00,VWS V14.01,2013-03-03 21:05:00,
2013-03-03 16:10:00,38.3,31.1,29.51,WNW,294,1.0,4.0,75,0.00,,CLR,0.00,VWS V14.01,2013-03-03 21:10:00,
2013-03-03 16:15:00,38.3,30.8,29.51,SW,228,1.0,2.0,74,0.00,,CLR,0.00,VWS V14.01,2013-03-03 21:15:00,
2013-03-03 16:20:00,38.3,30.8,29.51,WNW,283,4.0,5.0,74,0.00,,CLR,0.00,VWS V14.01,2013-03-03 21:20:00,
2013-03-03 16:25:00,38.3,30.8,29.51,West,264,1.0,2.0,74,0.00,,CLR,0.00,VWS V14.01,2013-03-03 21:25:00,
2013-03-03 16:30:00,38.3,30.8,29.51,WSW,257,2.0,5.0,74,0.00,,CLR,0.00,VWS V14.01,2013-03-03 21:30:00,
2013-03-03 16:35:00,38.2,30.7,29.51,WNW,293,1.0,3.0,74,0.00,,CLR,0.00,VWS V14.01,2013-03-03 21:35:00,
2013-03-03 16:40:00,38.2,30.3,29.52,West,262,4.0,5.0,73,0.00,,CLR,0.00,VWS V14.01,2013-03-03 21:40:00,
2013-03-03 16:45:00,38.1,30.6,29.52,NNW,328,1.0,2.0,74,0.00,,CLR,0.00,VWS V14.01,2013-03-03 21:45:00,
2013-03-03 16:50:00,38.1,30.6,29.52,ESE,108,1.0,2.0,74,0.00,,CLR,0.00,VWS V14.01,2013-03-03 21:50:00,
2013-03-03 16:55:00,38.0,30.1,29.52,WNW,283,0.0,4.0,73,0.00,,CLR,0.00,VWS V14.01,2013-03-03 21:55:00,
2013-03-03 17:00:00,38.0,30.1,29.52,WSW,253,1.0,3.0,73,0.00,,CLR,0.00,VWS V14.01,2013-03-03 22:00:00,
2013-03-03 17:05:00,37.9,30.0,29.52,West,269,2.0,2.0,73,0.00,,CLR,0.00,VWS V14.01,2013-03-03 22:05:00,
2013-03-03 17:10:00,37.7,29.8,29.52,SSW,212,3.0,8.0,73,0.00,,CLR,0.00,VWS V14.01,2013-03-03 22:10:00,
2013-03-03 17:15:00,37.5,29.6,29.52,NW,311,4.0,4.0,73,0.00,,CLR,0.00,VWS V14.01,2013-03-03 22:15:00,
2013-03-03 17:20:00,37.4,29.5,29.52,SW,227,0.0,2.0,73,0.00,,CLR,0.00,VWS V14.01,2013-03-03 22:20:00,
2013-03-03 17:25:00,37.3,29.5,29.52,WSW,238,3.0,3.0,73,0.00,,CLR,0.00,VWS V14.01,2013-03-03 22:25:00,
2013-03-03 17:30:00,37.2,29.0,29.52,West,262,2.0,6.0,72,0.00,,CLR,0.00,VWS V14.01,2013-03-03 22:30:00,
2013-03-03 17:35:00,37.1,29.3,29.53,SW,215,1.0,4.0,73,0.00,,CLR,0.00,VWS V14.01,2013-03-03 22:35:00,
2013-03-03 17:40:00,36.8,29.3,29.53,WSW,249,0.0,4.0,74,0.00,,CLR,0.00,VWS V14.01,2013-03-03 22:40:00,
2013-03-03 17:45:00,36.7,29.2,29.53,NNW,336,0.0,5.0,74,0.00,,CLR,0.00,VWS V14.01,2013-03-03 22:45:00,
2013-03-03 17:50:00,36.6,29.4,29.53,NW,325,2.0,4.0,75,0.00,,CLR,0.00,VWS V14.01,2013-03-03 22:50:00,
2013-03-03 17:55:00,36.5,29.3,29.53,NE,45,0.0,2.0,75,0.00,,CLR,0.00,VWS V14.01,2013-03-03 22:55:00,
2013-03-03 18:00:00,36.3,29.5,29.53,West,281,3.0,4.0,76,0.00,,CLR,0.00,VWS V14.01,2013-03-03 23:00:00,
2013-03-03 18:05:00,36.1,29.6,29.53,SW,225,1.0,3.0,77,0.00,,CLR,0.00,VWS V14.01,2013-03-03 23:05:00,
2013-03-03 18:10:00,36.0,29.5,29.54,NW,307,3.0,6.0,77,0.00,,CLR,0.00,VWS V14.01,2013-03-03 23:10:00,
2013-03-03 18:15:00,35.8,29.6,29.54,NNW,329,4.0,6.0,78,0.00,,CLR,0.00,VWS V14.01,2013-03-03 23:15:00,
2013-03-03 18:20:00,35.5,30.0,29.54,NW,308,1.0,5.0,80,0.00,,CLR,0.00,VWS V14.01,2013-03-03 23:20:00,
2013-03-03 18:25:00,35.2,30.0,29.54,WNW,294,2.0,6.0,81,0.00,,CLR,0.00,VWS V14.01,2013-03-03 23:25:00,
2013-03-03 18:30:00,35.1,29.9,29.54,SW,218,2.0,5.0,81,0.00,,CLR,0.00,VWS V14.01,2013-03-03 23:30:00,
2013-03-03 18:35:00,35.0,29.8,29.54,NW,308,0.0,4.0,81,0.00,,CLR,0.00,VWS V14.01,2013-03-03 23:35:00,
2013-03-03 18:40:00,34.9,29.7,29.54,WNW,285,0.0,2.0,81,0.00,,CLR,0.00,VWS V14.01,2013-03-03 23:40:00,
2013-03-03 18:45:00,34.9,29.7,29.54,West,277,0.0,1.0,81,0.00,,CLR,0.00,VWS V14.01,2013-03-03 23:45:00,
2013-03-03 18:50:00,34.9,29.7,29.54,WNW,283,0.0,1.0,81,0.00,,CLR,0.00,VWS V14.01,2013-03-03 23:50:00,
2013-03-03 18:55:00,34.9,29.4,29.54,WNW,283,1.0,3.0,80,0.00,,CLR,0.00,VWS V14.01,2013-03-03 23:55:00,
2013-03-03 19:00:00,34.9,29.4,29.54,WSW,256,0.0,1.0,80,0.00,,CLR,0.00,VWS V14.01,2013-03-04 00:00:00,
2013-03-03 19:05:00,35.0,29.5,29.54,WSW,255,0.0,0.0,80,0.00,,CLR,0.00,VWS V14.01,2013-03-04 00:05:00,
2013-03-03 19:10:00,34.9,29.1,29.54,WSW,252,0.0,2.0,79,0.00,,CLR,0.00,VWS V14.01,2013-03-04 00:10:00,
2013-03-03 19:15:00,34.9,28.8,29.54,NNE,18,0.0,4.0,78,0.00,,CLR,0.00,VWS V14.01,2013-03-04 00:15:00,
2013-03-03 19:20:00,35.0,28.9,29.54,West,266,1.0,3.0,78,0.00,,CLR,0.00,VWS V14.01,2013-03-04 00:20:00,
2013-03-03 19:25:00,35.1,28.6,29.54,WNW,291,1.0,4.0,77,0.00,,CLR,0.00,VWS V14.01,2013-03-04 00:25:00,
2013-03-03 19:30:00,35.1,28.6,29.54,West,262,0.0,2.0,77,0.00,,CLR,0.00,VWS V14.01,2013-03-04 00:30:00,
2013-03-03 19:35:00,35.1,28.6,29.54,West,274,1.0,3.0,77,0.00,,CLR,0.00,VWS V14.01,2013-03-04 00:35:00,
2013-03-03 19:40:00,35.1,28.6,29.54,West,260,2.0,5.0,77,0.00,,CLR,0.00,VWS V14.01,2013-03-04 00:40:00,
2013-03-03 19:45:00,35.1,28.6,29.54,SW,236,0.0,3.0,77,0.00,,CLR,0.00,VWS V14.01,2013-03-04 00:45:00,
2013-03-03 19:50:00,35.1,28.6,29.54,WNW,296,1.0,3.0,77,0.00,,CLR,0.00,VWS V14.01,2013-03-04 00:50:00,
2013-03-03 19:55:00,35.1,28.6,29.55,WSW,239,2.0,4.0,77,0.00,,CLR,0.00,VWS V14.01,2013-03-04 00:55:00,
2013-03-03 20:00:00,35.0,28.5,29.55,WNW,298,0.0,3.0,77,0.00,,CLR,0.00,VWS V14.01,2013-03-04 01:00:00,
2013-03-03 20:05:00,34.9,28.4,29.55,NNW,341,0.0,1.0,77,0.00,,CLR,0.00,VWS V14.01,2013-03-04 01:05:00,
2013-03-03 20:10:00,34.9,28.4,29.55,NE,41,1.0,3.0,77,0.00,,CLR,0.00,VWS V14.01,2013-03-04 01:10:00,
2013-03-03 20:15:00,34.9,28.4,29.55,North,360,2.0,3.0,77,0.00,,CLR,0.00,VWS V14.01,2013-03-04 01:15:00,
2013-03-03 20:20:00,35.0,28.5,29.55,NNE,18,2.0,5.0,77,0.00,,CLR,0.00,VWS V14.01,2013-03-04 01:20:00,
2013-03-03 20:25:00,35.1,28.3,29.55,NNW,330,1.0,8.0,76,0.00,,CLR,0.00,VWS V14.01,2013-03-04 01:25:00,
2013-03-03 20:30:00,35.2,28.1,29.55,West,260,2.0,4.0,75,0.00,,CLR,0.00,VWS V14.01,2013-03-04 01:30:00,
2013-03-03 20:35:00,35.2,28.1,29.55,NNE,18,4.0,10.0,75,0.00,,CLR,0.00,VWS V14.01,2013-03-04 01:35:00,
2013-03-03 20:40:00,35.2,28.1,29.55,WNW,285,2.0,3.0,75,0.00,,CLR,0.00,VWS V14.01,2013-03-04 01:40:00,
2013-03-03 20:45:00,35.2,28.1,29.55,NNE,16,8.0,9.0,75,0.00,,CLR,0.00,VWS V14.01,2013-03-04 01:45:00,
2013-03-03 20:50:00,35.2,28.1,29.56,NW,314,4.0,8.0,75,0.00,,CLR,0.00,VWS V14.01,2013-03-04 01:50:00,
2013-03-03 20:55:00,35.2,28.1,29.55,SE,128,1.0,8.0,75,0.00,,CLR,0.00,VWS V14.01,2013-03-04 01:55:00,
2013-03-03 21:00:00,35.1,28.0,29.55,WNW,298,2.0,7.0,75,0.00,,CLR,0.00,VWS V14.01,2013-03-04 02:00:00,
2013-03-03 21:05:00,35.1,28.0,29.55,NE,41,3.0,7.0,75,0.00,,CLR,0.00,VWS V14.01,2013-03-04 02:05:00,
2013-03-03 21:10:00,35.1,28.0,29.55,North,10,2.0,6.0,75,0.00,,CLR,0.00,VWS V14.01,2013-03-04 02:10:00,
2013-03-03 21:15:00,35.0,27.6,29.55,NE,38,6.0,7.0,74,0.00,,CLR,0.00,VWS V14.01,2013-03-04 02:15:00,
2013-03-03 21:20:00,35.0,27.6,29.56,WNW,283,2.0,5.0,74,0.00,,CLR,0.00,VWS V14.01,2013-03-04 02:20:00,
2013-03-03 21:25:00,34.9,27.8,29.55,NNW,337,0.0,3.0,75,0.00,,CLR,0.00,VWS V14.01,2013-03-04 02:25:00,
2013-03-03 21:30:00,34.9,27.8,29.55,NE,51,0.0,3.0,75,0.00,,CLR,0.00,VWS V14.01,2013-03-04 02:30:00,
2013-03-03 21:35:00,34.8,28.0,29.55,West,265,1.0,4.0,76,0.00,,CLR,0.00,VWS V14.01,2013-03-04 02:35:00,
2013-03-03 21:40:00,34.7,27.9,29.55,NW,318,2.0,5.0,76,0.00,,CLR,0.00,VWS V14.01,2013-03-04 02:40:00,
2013-03-03 21:45:00,34.6,27.8,29.55,WNW,298,1.0,4.0,76,0.00,,CLR,0.00,VWS V14.01,2013-03-04 02:45:00,
2013-03-03 21:50:00,34.5,27.7,29.55,NNW,330,4.0,5.0,76,0.00,,CLR,0.00,VWS V14.01,2013-03-04 02:50:00,
2013-03-03 21:55:00,34.4,27.3,29.55,North,354,3.0,6.0,75,0.00,,CLR,0.00,VWS V14.01,2013-03-04 02:55:00,
2013-03-03 22:00:00,34.4,27.6,29.55,WNW,297,1.0,6.0,76,0.00,,CLR,0.00,VWS V14.01,2013-03-04 03:00:00,
2013-03-03 22:05:00,34.2,27.4,29.55,WSW,255,3.0,4.0,76,0.00,,CLR,0.00,VWS V14.01,2013-03-04 03:05:00,
2013-03-03 22:10:00,34.0,27.6,29.55,WSW,256,1.0,4.0,77,0.00,,CLR,0.00,VWS V14.01,2013-03-04 03:10:00,
2013-03-03 22:15:00,33.8,27.4,29.55,SW,226,2.0,5.0,77,0.00,,CLR,0.00,VWS V14.01,2013-03-04 03:15:00,
2013-03-03 22:20:00,33.7,27.6,29.55,SSW,210,1.0,4.0,78,0.00,,CLR,0.00,VWS V14.01,2013-03-04 03:20:00,
2013-03-03 22:25:00,33.5,27.4,29.55,SW,233,2.0,6.0,78,0.00,,CLR,0.00,VWS V14.01,2013-03-04 03:25:00,
2013-03-03 22:30:00,33.5,27.4,29.55,West,260,2.0,4.0,78,0.00,,CLR,0.00,VWS V14.01,2013-03-04 03:30:00,
2013-03-03 22:35:00,33.4,27.3,29.55,North,352,2.0,4.0,78,0.00,,CLR,0.00,VWS V14.01,2013-03-04 03:35:00,
2013-03-03 22:40:00,33.3,27.5,29.55,West,269,0.0,4.0,79,0.00,,CLR,0.00,VWS V14.01,2013-03-04 03:40:00,
2013-03-03 22:45:00,33.2,27.1,29.55,WSW,239,0.0,6.0,78,0.00,,CLR,0.00,VWS V14.01,2013-03-04 03:45:00,
2013-03-03 22:50:00,33.2,27.1,29.55,West,276,3.0,7.0,78,0.00,,CLR,0.00,VWS V14.01,2013-03-04 03:50:00,
2013-03-03 22:55:00,33.1,27.0,29.55,West,280,1.0,8.0,78,0.00,,CLR,0.00,VWS V14.01,2013-03-04 03:55:00,
2013-03-03 23:00:00,33.1,27.0,29.55,WNW,297,1.0,7.0,78,0.00,,CLR,0.00,VWS V14.01,2013-03-04 04:00:00,
2013-03-03 23:05:00,33.0,26.6,29.55,West,277,1.0,4.0,77,0.00,,CLR,0.00,VWS V14.01,2013-03-04 04:05:00,
2013-03-03 23:10:00,33.0,26.6,29.55,West,261,4.0,7.0,77,0.00,,CLR,0.00,VWS V14.01,2013-03-04 04:10:00,
2013-03-03 23:15:00,33.0,26.6,29.55,WNW,290,8.0,8.0,77,0.00,,CLR,0.00,VWS V14.01,2013-03-04 04:15:00,
2013-03-03 23:20:00,33.0,26.3,29.55,WNW,291,3.0,7.0,76,0.00,,CLR,0.00,VWS V14.01,2013-03-04 04:20:00,
2013-03-03 23:25:00,33.0,26.3,29.55,WNW,283,3.0,5.0,76,0.00,,CLR,0.00,VWS V14.01,2013-03-04 04:25:00,
2013-03-03 23:30:00,32.9,26.2,29.55,North,359,0.0,7.0,76,0.00,,CLR,0.00,VWS V14.01,2013-03-04 04:30:00,
2013-03-03 23:35:00,32.9,26.2,29.55,NW,318,2.0,7.0,76,0.00,,CLR,0.00,VWS V14.01,2013-03-04 04:35:00,
2013-03-03 23:40:00,32.8,26.1,29.55,West,262,1.0,4.0,76,0.00,,CLR,0.00,VWS V14.01,2013-03-04 04:40:00,
2013-03-03 23:45:00,32.8,26.1,29.55,NW,304,0.0,6.0,76,0.00,,CLR,0.00,VWS V14.01,2013-03-04 04:45:00,
2013-03-03 23:50:00,32.7,26.0,29.55,WSW,257,6.0,6.0,76,0.00,,CLR,0.00,VWS V14.01,2013-03-04 04:50:00,
2013-03-03 23:55:00,32.7,26.0,29.55,SE,135,1.0,4.0,76,0.00,,CLR,0.00,VWS V14.01,2013-03-04 04:55:00,